Theta_e
314 314 314 315 314 315 314 313 312 312 310 308 303 303 303 303 303 303 304 303 303 302 302 303 304 308 310 311 310 309 305 306 307 307 308 306 307 306 306 306 306 308 310 310 310
315 315 314 314 315 315 315 314 313 311 312 309 303 303 304 302 303 303 303 303 303 302 303 304 306 308 308 308 307 305 302 305 304 303 304 304 305 305 306 305 305 306 308 309 309
315 315 314 315 315 315 315 314 314 310 310 311 305 302 304 304 305 302 302 303 302 302 303 304 306 306 306 307 306 306 304 303 304 305 304 304 305 305 304 305 306 305 307 309 309
315 314 315 314 315 315 315 313 314 312 309 310 307 303 303 304 307 302 302 303 302 302 302 303 305 305 304 305 305 305 303 304 304 304 304 304 304 304 304 305 306 305 306 308 309
315 315 315 314 315 315 314 313 311 310 308 309 307 303 303 304 302 302 302 303 303 303 302 303 304 305 304 304 304 304 303 303 303 303 303 303 302 302 303 305 305 305 305 307 308
315 315 313 312 314 314 314 312 308 307 308 309 306 303 304 304 303 303 302 303 303 303 303 304 304 305 304 304 303 304 303 303 303 304 304 303 302 302 303 304 304 304 305 306 307
315 315 310 312 310 312 314 311 306 307 308 309 305 304 303 302 301 303 303 302 303 303 303 304 305 305 304 303 304 303 304 304 304 304 303 302 302 300 303 304 304 304 304 305 306
316 314 309 309 309 310 312 308 307 307 306 304 303 304 301 301 301 302 303 302 303 303 304 304 305 305 304 303 304 304 304 304 304 303 303 301 305 303 304 304 304 304 304 304 305
315 314 310 307 307 308 308 307 307 306 305 304 304 304 301 302 302 303 303 303 302 303 303 304 305 305 305 304 306 303 304 306 304 302 301 301 303 303 303 303 303 303 304 304 304
316 314 309 307 306 307 308 308 307 306 307 306 305 306 301 301 302 303 303 303 303 305 305 305 306 300 297 300 303 304 301 303 304 301 301 302 302 302 303 303 303 303 303 303 303
315 313 311 306 307 307 307 309 309 309 301 298 298 299 301 302 303 304 304 304 305 306 301 306 300 299 301 301 302 302 303 303 303 300 301 301 300 302 302 301 300 301 302 302 303
315 311 308 307 307 307 306 307 306 303 300 299 299 300 302 304 304 304 305 304 304 299 305 301 301 302 302 302 302 303 301 301 301 300 299 298 299 300 299 299 300 300 300 301 302
314 307 307 307 307 306 306 306 305 307 303 302 300 300 303 304 303 303 304 303 299 299 298 303 302 302 303 300 302 302 301 301 301 298 297 295 297 299 298 301 301 300 300 301 301
311 306 307 306 308 306 305 305 305 307 298 303 301 301 305 304 303 303 303 304 301 298 301 301 301 302 301 301 299 302 299 300 299 294 296 295 298 298 298 298 299 301 300 300 300
306 307 306 305 305 305 305 304 305 308 301 302 301 302 305 304 303 304 303 304 301 300 297 300 301 301 300 300 299 300 298 298 295 289 291 293 291 297 298 300 298 299 301 301 301
307 306 305 305 305 304 304 304 307 301 299 299 302 302 302 303 303 304 304 303 302 301 299 299 299 298 299 298 298 297 296 294 292 286 293 287 291 299 300 300 299 298 300 301 301
306 304 303 303 304 303 304 307 303 300 296 298 302 302 300 299 302 301 302 300 300 297 294 297 300 298 298 299 298 295 290 292 295 294 298 281 292 299 300 298 296 297 300 301 301
303 301 302 302 303 304 305 300 298 291 292 301 302 303 302 300 300 301 302 299 298 297 291 292 296 293 297 298 298 296 290 293 293 296 296 283 294 300 296 297 297 299 300 301 300
300 301 302 303 303 304 303 294 295 296 301 301 300 295 294 301 298 297 301 299 300 298 295 293 296 296 296 296 295 294 290 292 286 278 287 292 293 297 296 292 296 298 299 300 301
300 301 302 303 302 301 297 297 294 299 302 301 297 296 291 290 299 295 297 300 300 297 295 296 293 290 296 296 293 291 292 292 287 293 290 291 286 299 297 295 292 293 297 300 301
300 302 301 301 301 299 293 289 294 300 302 301 301 298 299 294 298 294 298 301 299 297 296 291 290 291 295 289 289 290 289 288 288 292 292 290 296 291 293 294 291 294 298 300 301
299 297 300 301 298 292 289 295 298 301 302 302 301 298 296 297 297 292 299 298 299 297 298 296 294 290 294 294 293 293 290 293 293 291 288 292 297 293 290 286 291 297 297 297 298
297 298 298 298 291 291 296 297 298 300 300 299 299 301 298 292 292 300 301 300 299 298 296 297 289 288 292 292 292 292 294 292 288 292 290 293 299 287 286 289 296 296 299 300 300
297 293 299 299 297 293 293 294 296 299 301 300 300 300 300 292 294 294 300 299 299 299 299 297 296 291 292 288 287 292 293 294 292 287 296 298 298 295 297 298 298 299 300 300 300
297 295 294 292 295 295 295 293 296 296 299 299 295 297 295 292 295 290 298 298 298 299 299 295 293 294 293 291 287 293 291 291 294 296 294 298 297 290 296 297 298 298 298 298 298
297 297 296 294 297 296 294 297 294 294 296 297 293 298 296 291 296 296 297 298 297 297 296 295 293 289 296 295 296 297 297 296 295 295 294 296 296 296 297 297 296 297 297 297 297
296 297 297 295 295 292 294 296 297 297 298 298 297 297 297 297 298 298 298 298 298 296 296 296 292 288 291 289 289 292 292 295 295 287 294 295 296 295 294 295 296 296 297 297 297
Wind_Speed
12 13 13 13 12 12 12 12 12 11 11 10 7 5 1 1 3 3 3 5 3 1 1 4 7 7 9 5 3 3 4 2 3 3 1 4 1 2 2 5 4 5 3 3 23
12 14 14 13 13 12 12 12 12 11 10 9 7 5 2 2 1 8 7 6 4 1 3 4 7 8 4 4 2 3 4 7 1 1 1 3 1 1 0 1 3 5 7 8 23
13 14 15 14 13 13 12 13 12 11 9 7 7 4 2 2 1 7 7 6 3 1 3 5 6 4 3 3 1 3 4 3 1 2 2 3 0 2 2 4 8 9 11 17 25
14 15 15 14 14 12 12 13 12 11 8 5 5 3 2 1 1 7 6 6 3 2 3 5 5 3 3 3 2 3 2 1 2 1 2 2 6 5 6 4 5 7 9 19 27
14 15 16 15 14 13 12 13 13 11 7 4 3 2 0 1 5 5 6 6 3 2 3 4 4 2 4 3 2 2 2 2 1 1 2 5 5 6 13 11 9 6 9 19 24
14 16 17 16 13 13 13 14 13 8 4 2 2 1 1 2 5 6 5 6 4 3 3 4 3 4 5 3 2 2 2 2 1 1 2 3 2 3 2 4 18 13 13 18 24
15 15 15 13 13 13 11 13 8 4 2 1 2 3 5 3 4 7 4 4 6 5 5 4 5 1 5 3 4 4 2 2 1 1 1 5 5 7 8 5 6 19 17 19 22
15 13 12 13 15 11 8 8 4 3 1 1 3 1 4 4 3 5 4 3 4 5 6 5 6 5 3 7 4 2 3 2 0 3 1 2 6 3 3 6 11 11 19 21 24
12 12 13 13 14 10 7 2 3 3 3 3 2 2 3 2 5 7 4 2 4 4 5 4 3 4 3 3 4 6 2 1 2 4 3 2 6 3 2 3 10 13 17 21 22
11 11 12 13 12 9 6 1 6 2 1 2 4 2 4 5 4 7 3 3 2 4 3 2 4 3 4 5 2 2 2 2 3 5 3 4 14 14 21 17 21 23 24 22 21
11 12 11 11 11 8 5 2 3 1 9 7 5 3 5 4 6 6 3 2 3 4 4 5 6 2 2 2 1 2 2 2 3 4 4 4 10 18 19 17 21 27 30 33 30
11 10 10 10 9 7 5 1 3 7 8 8 7 5 8 7 3 10 5 2 3 3 4 6 3 2 0 4 3 4 2 4 5 2 3 5 16 19 13 7 7 13 15 19 18
11 9 9 9 6 4 3 2 4 7 3 4 7 6 5 7 6 12 8 4 5 5 4 5 1 3 3 5 4 2 2 2 3 7 1 8 8 6 3 4 8 7 9 8 14
9 8 8 8 3 3 1 2 3 6 4 5 4 5 6 3 4 11 8 4 5 3 2 5 4 3 4 4 2 1 3 2 2 5 2 5 5 7 3 7 4 5 5 0 10
8 8 6 5 4 1 2 1 5 3 3 3 4 4 5 5 4 7 10 4 4 2 5 3 4 5 5 1 2 1 3 2 3 4 4 6 3 8 4 5 6 8 5 6 10
7 7 5 4 3 1 1 4 6 6 5 3 3 6 4 7 5 7 4 6 4 4 5 1 2 3 1 2 3 2 3 5 3 3 3 3 3 6 3 4 4 4 10 10 12
7 6 4 3 2 1 2 4 5 4 4 4 2 4 3 5 4 8 5 5 2 4 4 5 2 3 4 2 2 5 6 4 6 4 4 2 1 10 7 6 5 7 15 15 16
6 4 3 2 0 1 3 5 4 3 5 1 2 3 4 5 3 6 2 3 5 4 3 3 6 3 5 3 2 3 5 4 5 2 5 2 6 6 5 5 9 11 13 18 20
6 4 3 1 1 1 3 4 7 6 3 5 3 5 4 2 2 4 4 0 1 2 4 3 4 1 4 3 3 2 2 2 6 1 3 3 8 10 3 6 12 12 15 21 23
5 3 2 1 1 2 3 3 2 2 2 1 4 2 3 3 3 4 2 2 1 4 2 3 4 1 4 2 6 4 2 4 3 2 5 5 7 6 8 8 6 8 16 23 23
4 2 1 2 1 2 3 5 3 3 0 1 3 3 2 4 3 2 3 0 1 2 5 4 4 5 2 3 6 2 2 4 3 4 4 2 6 7 8 8 7 13 21 23 26
2 1 0 1 2 4 3 3 2 1 2 1 3 3 5 5 2 1 2 4 3 5 3 1 3 2 9 1 3 4 6 4 4 6 3 2 10 6 8 5 9 19 16 18 28
2 1 2 3 3 1 3 2 1 1 1 2 2 1 4 5 3 3 2 1 4 3 4 4 2 4 8 4 4 2 4 3 2 2 6 3 7 2 6 8 11 16 22 22 23
1 2 3 5 5 6 5 3 1 3 1 2 3 2 3 3 3 2 2 1 4 3 3 5 4 8 7 6 4 3 4 5 5 3 8 19 30 10 18 19 23 35 42 47 47
2 1 1 1 3 4 3 4 3 1 1 1 4 3 5 2 1 2 2 2 0 1 4 4 5 5 8 8 5 12 7 9 13 13 10 33 25 4 15 21 35 34 43 46 47
2 3 3 3 4 3 3 4 5 2 4 2 3 3 4 5 5 5 4 2 5 1 5 2 4 1 8 9 15 21 16 20 20 20 17 26 34 19 35 38 32 32 37 39 44
4 5 2 1 1 3 3 4 5 5 2 0 3 3 2 6 10 10 10 10 10 6 5 5 2 3 6 3 6 9 15 19 12 5 11 14 22 14 17 25 31 25 38 42 43
Wind_Direction
23 18 15 12 9 8 6 6 5 5 360 1 3 352 351 165 65 22 9 10 352 335 122 148 158 161 169 155 139 134 67 212 230 173 300 6 84 72 119 144 180 195 188 222 181
4 3 360 358 356 355 354 352 355 354 353 354 358 360 16 180 191 27 11 13 3 21 142 147 156 156 147 142 133 102 122 217 163 180 266 319 42 360 61 160 209 193 197 184 185
348 349 346 344 344 343 346 341 339 342 340 343 353 9 61 116 99 6 8 10 27 70 154 154 156 143 109 131 94 130 180 156 205 338 317 303 257 313 144 245 232 219 195 181 187
341 342 341 337 337 335 336 338 329 329 326 326 343 13 40 57 222 360 9 14 40 98 145 150 158 129 96 128 119 124 114 120 157 312 332 332 312 305 230 228 266 241 223 196 195
336 339 339 334 328 331 329 334 327 318 313 312 321 338 61 78 34 16 23 28 38 102 148 151 145 123 130 118 103 103 150 99 122 340 320 298 264 263 268 250 226 244 206 205 207
330 334 334 329 322 321 323 330 326 313 298 297 307 97 159 92 28 24 29 34 48 109 148 155 145 117 108 79 93 114 114 100 57 15 325 325 282 323 278 302 223 235 229 215 212
323 333 340 344 339 320 318 330 330 318 301 265 158 115 93 113 38 28 30 40 56 84 115 123 127 112 120 102 108 113 72 352 297 23 326 332 281 238 255 252 220 229 228 223 221
320 326 336 338 340 339 322 330 335 326 330 112 124 127 100 77 39 21 23 55 72 86 96 108 109 104 68 119 55 54 46 52 181 4 15 360 275 246 288 229 229 232 223 227 223
315 317 326 331 332 343 339 349 7 52 110 96 60 126 84 32 15 7 22 92 104 94 98 105 92 80 78 70 26 19 180 321 332 39 334 37 273 241 257 258 257 243 232 229 231
304 311 318 329 331 340 342 160 63 58 110 92 54 102 33 345 20 16 33 65 108 117 102 87 63 68 33 56 227 273 21 313 276 351 351 277 265 276 280 276 271 263 256 243 232
298 304 308 324 329 339 353 185 230 291 68 71 42 63 12 20 36 11 40 78 92 79 50 22 65 76 332 6 23 87 72 299 290 22 339 266 283 283 291 279 273 270 266 257 254
296 297 306 318 324 338 352 205 115 137 86 57 54 52 36 31 40 29 28 63 62 71 347 26 88 317 297 33 59 61 70 297 292 40 3 338 292 282 285 261 282 294 290 260 237
284 293 300 307 310 333 39 102 132 144 88 35 35 30 17 25 37 10 24 32 72 54 20 114 127 18 75 39 46 58 143 340 264 328 359 331 292 313 322 298 308 325 321 254 225
269 283 296 305 290 333 42 32 154 166 78 314 360 16 8 16 42 19 21 50 38 149 66 79 10 62 54 77 63 360 9 33 10 37 277 19 278 302 328 301 285 311 2 181 196
261 277 285 284 283 300 352 73 139 139 46 304 325 360 21 58 338 10 25 46 72 50 80 268 19 36 57 48 60 142 38 66 92 91 46 350 66 272 325 294 260 239 221 182 178
258 271 273 266 247 263 48 122 124 48 256 340 325 354 40 25 23 349 34 59 83 82 42 78 43 51 76 68 54 79 55 42 63 95 19 272 110 287 261 226 295 232 219 203 196
252 265 269 253 239 29 137 138 44 126 343 287 21 35 104 357 11 26 11 19 63 55 355 351 17 360 32 35 40 59 49 337 354 9 230 303 40 245 259 269 248 241 215 204 196
241 250 240 234 181 106 147 60 91 233 224 312 33 75 79 353 33 358 27 38 42 74 88 102 332 29 353 60 180 54 129 149 229 279 276 354 244 248 223 302 256 277 234 208 202
223 211 224 191 156 138 204 69 204 198 168 163 65 75 324 7 126 50 26 215 48 76 134 99 287 10 44 21 67 279 39 164 98 78 41 261 288 295 308 278 249 253 224 215 214
207 212 212 216 231 167 78 201 148 232 329 76 145 133 166 279 54 55 360 286 63 39 100 168 350 324 302 74 34 130 143 35 10 332 300 292 280 241 297 286 276 266 233 224 223
191 203 318 234 221 173 139 208 229 233 215 94 166 128 161 167 162 180 191 297 110 93 71 122 95 290 13 184 182 38 360 37 125 155 204 279 259 217 237 254 266 274 248 238 231
213 55 326 200 31 55 110 156 180 261 116 82 100 113 168 166 146 69 220 202 153 148 101 84 134 263 229 127 165 170 190 159 134 269 229 169 271 241 244 284 311 301 288 273 258
212 142 360 218 137 85 123 119 191 240 180 137 114 140 196 162 69 202 214 181 149 137 161 172 338 353 336 14 360 210 201 163 117 87 197 176 258 288 287 322 314 303 317 319 317
180 25 49 71 75 128 142 176 191 234 191 137 130 114 139 38 24 180 230 146 180 172 153 160 188 183 213 205 145 206 201 213 161 160 271 242 271 302 292 298 302 300 302 302 299
63 86 85 244 4 102 101 134 134 172 229 180 10 184 160 121 48 219 227 330 127 180 170 149 226 229 244 247 213 250 215 222 225 242 225 273 268 279 277 293 292 295 291 293 292
93 128 104 92 115 95 4 213 160 238 142 253 159 184 164 158 189 195 157 158 223 104 173 180 272 110 276 233 246 262 253 245 237 245 253 263 274 266 280 284 288 286 289 286 294
110 128 127 63 94 92 224 180 200 147 206 257 170 115 216 240 252 266 265 247 232 178 195 172 164 38 266 347 307 286 232 237 232 183 217 253 263 291 280 285 300 320 305 298 301